GW4545 Weather Reports


time (UTC)temp
C
wind
direction
speed
KPH
gust
KPH
rain 1hr
cm
rain 24hr
cm
rain mn
cm
humidity
%
barometer
mb
20260505064550 11 0 0.0 9.7 0.00 0.00 0.00 86 1014.0
20260505063047 11 0 0.0 1.6 0.00 0.00 0.00 86 1013.7
20260505061610 11 0 0.0 3.2 0.00 0.00 0.00 86 1013.4
20260505060058 12 300 1.6 3.2 0.00 0.00 0.00 85 1013.3
20260505054547 12 300 1.6 4.8 0.00 0.00 0.00 84 1013.4
20260505053044 12 268 0.0 4.8 0.00 0.00 0.00 82 1013.5
20260505051542 12 0 0.0 3.2 0.00 0.00 0.00 82 1013.5
20260505041552 14 315 1.6 14.5 0.00 0.00 0.00 77 1012.9
20260505040058 15 268 4.8 9.7 0.00 0.00 0.00 77 1012.7
20260505034544 15 313 3.2 6.4 0.00 0.00 0.00 75 1012.5
20260505033041 16 0 0.0 8.0 0.00 0.00 0.00 74 1012.4
20260505031552 17 286 4.8 9.7 0.00 0.00 0.00 71 1012.2
20260505030049 17 321 0.0 3.2 0.00 0.00 0.00 69 1011.9
20260505024544 18 295 3.2 14.5 0.00 0.00 0.00 68 1012.0
20260505023044 19 252 9.7 19.3 0.00 0.00 0.00 64 1011.6
20260505021545 20 261 14.5 22.5 0.00 0.00 0.00 63 1011.7
20260505020050 21 281 11.3 17.7 0.00 0.00 0.00 63 1011.6
20260505014548 22 235 11.3 17.7 0.00 0.00 0.00 59 1011.5
20260505013047 22 254 12.9 22.5 0.00 0.00 0.00 58 1011.5
20260505011545 23 264 11.3 16.1 0.00 0.00 0.00 58 1011.6
20260505004554 25 146 4.8 11.3 0.00 0.00 0.00 56 1011.8
20260505003047 25 167 1.6 12.9 0.00 0.00 0.00 56 1011.7
20260505001552 25 111 3.2 11.3 0.00 0.00 0.00 60 1011.7
20260505000056 25 163 6.4 14.5 0.00 0.00 0.00 57 1011.9
20260504234545 25 194 4.8 9.7 0.00 0.00 0.00 58 1011.8
20260504233043 24 140 1.6 9.7 0.00 0.00 0.00 60 1011.9
20260504231541 25 9 1.6 8.0 0.00 0.00 0.00 57 1012.0
20260504230042 24 0 3.2 11.3 0.00 0.00 0.00 59 1012.2
20260504224550 23 133 1.6 8.0 0.00 0.00 0.00 60 1012.4
20260504223050 23 67 4.8 11.3 0.00 0.00 0.00 60 1012.6
20260504221546 23 198 1.6 9.7 0.00 0.00 0.00 62 1012.8
20260504214547 22 0 1.6 11.3 0.00 0.00 0.00 64 1013.1
20260504213108 22 32 4.8 12.9 0.00 0.00 0.00 67 1013.2
20260504211545 21 96 3.2 14.5 0.00 0.00 0.00 67 1013.5
20260504210048 21 68 4.8 12.9 0.00 0.00 0.00 69 1013.6
20260504204555 20 46 3.2 11.3 0.00 0.00 0.00 69 1013.7
20260504203043 20 117 4.8 16.1 0.00 0.00 0.00 67 1013.9
20260504201551 20 98 4.8 11.3 0.00 0.00 0.00 71 1014.1
20260504200045 18 37 4.8 14.5 0.00 0.00 0.00 70 1014.3
20260504194549 19 128 4.8 12.9 0.00 0.00 0.00 70 1014.4
20260504193059 18 0 1.6 12.9 0.00 0.00 0.00 73 1014.4
20260504191544 18 94 3.2 14.5 0.00 0.00 0.00 73 1014.5
20260504190051 18 28 1.6 12.9 0.00 0.00 0.00 78 1014.6
20260504184544 17 43 4.8 12.9 0.00 0.00 0.00 76 1014.5
20260504183057 17 5 3.2 11.3 0.00 0.00 0.00 75 1014.7
20260504181546 17 131 4.8 14.5 0.00 0.00 0.00 75 1014.7
20260504180122 17 62 3.2 9.7 0.00 0.00 0.00 74 1014.7
20260504174551 17 107 1.6 11.3 0.00 0.00 0.00 75 1014.7
20260504173043 16 46 1.6 11.3 0.00 0.00 0.00 78 1014.4
20260504171545 16 96 3.2 12.9 0.00 0.00 0.00 75 1014.3
20260504081541 13 0 0.0 3.2 0.00 0.00 0.00 81 1010.0